FORMOSAT-3 FM5 (29049 NORAD) Tracking and Keplerian Element Data

This shows tracking and keplerian element data for the satellite.

Feedback or suggestion? Click here.




ElementValue
Catalog29049
NameFORMOSAT-3 FM5
Epoch Orbit66100
Epoch Day349.17441179
Epoch Year2018
RAAN233.1299
Inclination72.0202
Eccentricity0.0037006
Argument of Perigee278.8767
Mean Anonmoly80.818
Mean Motion14.28685807
Decay Rate4.2E-07
L11 29049U 06011C 18349.17441179 .00000042 00000-0 33134-4 0 9995
L22 29049 72.0202 233.1299 0037006 278.8767 80.8180 14.28685807661006

Live tracking and technical data element details for FORMOSAT-3 FM5 (NORAD 29049). FORMOSAT-3 FM5 can be tracked NOW for your location showing map with azimuth and elevation plus other details from your city location.

Track the satellite on the map from your city or location and see movement details for azimuth, elevation, latitude, longitude, range, height, and movement on the map or in text.







IsCatalogInMostPopularTable: catalog: 29049, numindb: 56
Update: records affected: 1



GetName: 29049 FORMOSAT-3 FM5

Hit Count: updated at: Sat, 15 Dec 2018 14:51:16 GMT